London-Corbin, KY

12:52 PM EST on December 09, 2019 (GMT -0500)
London-Corbin / McKee

Weather History for KLOZ - June, 2019

Change the Weather History Date:

Friday, June 7, 2019

  Actual Average Record
Temperature  
Mean Temperature 71 °F 71 °F  
Max Temperature 74 °F 82 °F 92 °F (1969)
Min Temperature 67 °F 60 °F 43 °F (2000)
Degree Days  
Heating Degree Days 0 1  
Month to date heating degree days 0 7  
Since 1 June heating degree days 0 7  
Since 1 July heating degree days 4024 4203  
Cooling Degree Days 6 6  
Month to date cooling degree days 41 39  
Year to date cooling degree days 219 153  
Since 1 June cooling degree days 41 39  
Growing Degree Days 20 (Base 50)    
Moisture  
Dew Point 69 °F    
Average Humidity 97    
Maximum Humidity 100    
Minimum Humidity 93    
Precipitation  
Precipitation 1.79 in 0.15 in 1.79 in (2019)
Month to date precipitation 2.64 1.10  
Sea Level Pressure  
Sea Level Pressure 29.79 in    
Wind  
Wind Speed 5 mph (ENE)    
Max Wind Speed 12 mph    
Max Gust Speed 17 mph    
Visibility 7 miles    
Events Rain , Thunderstorm    
T = Trace of Precipitation, MM = Missing Value Source: NWS Daily Summary

Daily Weather History Graph

Daily Weather History Graph

Search for Another Location

Airport or City:

Astronomy

Jun. 07, 2019 Rise Set
Actual Time 6:16 AM EDT 8:54 PM EDT
Civil Twilight 5:45 AM EDT 9:24 PM EDT
Nautical Twilight 5:07 AM EDT 10:02 PM EDT
Astronomical Twilight 4:25 AM EDT 10:45 PM EDT
Moon 10:30 AM EDT (6/7) 12:11 AM EDT (6/7)
Length of Visible Light 15h 38m
Length of Day
14h 37m
Waxing Crescent, 22% of the Moon is Illuminated
Jun 7
Waxing Crescent
Jun 10
First Quarter
Jun 17
Full
Jun 25
Last Quarter
Jul 2
New

Hourly Weather History & Observations

Time (EDT) Temp. Dew Point Humidity Pressure Visibility Wind Dir Wind Speed Gust Speed Precip Events Conditions
12:53 AM 69.1 °F 69.1 °F 100% 29.83 in 9.0 mi Calm Calm - N/A   Overcast
1:06 AM 69.1 °F 69.1 °F 100% 29.86 in 10.0 mi Calm Calm - N/A   Overcast
1:53 AM 69.1 °F 69.1 °F 100% 29.81 in 10.0 mi Calm Calm - 0.00 in Rain Light Rain
2:01 AM 70.0 °F 70.0 °F 100% 29.85 in 7.0 mi Calm Calm - 0.01 in Rain Light Rain
2:53 AM 69.1 °F 69.1 °F 100% 29.81 in 4.0 mi Calm Calm - 0.18 in Rain Rain
3:09 AM 69.1 °F 69.1 °F 100% 29.84 in 3.0 mi Calm Calm - 0.07 in Rain Rain
3:19 AM 69.1 °F 69.1 °F 100% 29.84 in 2.5 mi Calm Calm - 0.14 in Rain Heavy Rain
3:50 AM 69.8 °F 69.8 °F 100% 29.83 in 3.0 mi Calm Calm - 0.30 in Rain Rain
3:53 AM 69.1 °F 69.1 °F 100% 29.80 in 2.5 mi Calm Calm - 0.32 in Rain Heavy Rain
4:04 AM 69.1 °F 69.1 °F 100% 29.83 in 1.0 mi SE 3.5 mph - 0.25 in Rain Heavy Rain
4:18 AM 69.1 °F 69.1 °F 100% 29.83 in 1.2 mi Calm Calm - 0.39 in Rain Heavy Rain
4:24 AM 69.1 °F 69.1 °F 100% 29.83 in 2.0 mi East 3.5 mph - 0.41 in Rain Heavy Rain
4:34 AM 68.0 °F 68.0 °F 100% 29.82 in 4.0 mi Calm Calm - 0.44 in Rain Rain
4:53 AM 68.0 °F 68.0 °F 100% 29.79 in 3.0 mi Calm Calm - 0.51 in Rain Rain
5:05 AM 68.0 °F 68.0 °F 100% 29.82 in 3.0 mi Calm Calm - 0.06 in Rain Heavy Rain
5:53 AM 68.0 °F 68.0 °F 100% 29.79 in 8.0 mi Calm Calm - 0.14 in Rain Light Rain
6:11 AM 68.0 °F 68.0 °F 100% 29.83 in 2.5 mi ESE 3.5 mph - 0.05 in Rain Heavy Rain
6:22 AM 68.0 °F 68.0 °F 100% 29.83 in 2.5 mi ESE 3.5 mph - 0.09 in Rain Rain
6:30 AM 66.9 °F 66.9 °F 100% 29.83 in 3.0 mi East 3.5 mph - 0.13 in Rain Rain
6:50 AM 68.0 °F 68.0 °F 100% 29.83 in 9.0 mi East 3.5 mph - 0.16 in Rain Light Rain
6:53 AM 68.0 °F 68.0 °F 100% 29.80 in 10.0 mi ESE 3.5 mph - 0.16 in Rain Light Rain
7:53 AM 68.0 °F 68.0 °F 100% 29.80 in 8.0 mi East 5.8 mph - 0.00 in Rain Light Rain
8:17 AM 68.0 °F 68.0 °F 100% 29.83 in 8.0 mi East 8.1 mph - 0.02 in Rain Light Rain
8:32 AM 68.0 °F 68.0 °F 100% 29.83 in 9.0 mi East 5.8 mph - 0.03 in Rain Light Rain
8:35 AM 68.0 °F 68.0 °F 100% 29.83 in 10.0 mi East 5.8 mph - 0.03 in Rain Light Rain
8:49 AM 68.0 °F 68.0 °F 100% 29.83 in 10.0 mi East 8.1 mph - 0.03 in Rain Light Rain
8:53 AM 68.0 °F 68.0 °F 100% 29.80 in 10.0 mi East 4.6 mph - 0.03 in Rain Light Rain
9:26 AM 68.0 °F 68.0 °F 100% 29.83 in 3.0 mi East 6.9 mph - 0.02 in Rain Light Rain
9:35 AM 68.0 °F 68.0 °F 100% 29.82 in 2.5 mi ENE 4.6 mph - 0.04 in Rain Rain
9:49 AM 68.0 °F 68.0 °F 100% 29.82 in 4.0 mi East 8.1 mph - 0.06 in Rain Light Rain
9:53 AM 68.0 °F 68.0 °F 100% 29.79 in 4.0 mi ENE 5.8 mph - 0.06 in Rain Light Rain
10:35 AM 69.1 °F 69.1 °F 100% 29.82 in 7.0 mi East 5.8 mph - 0.01 in Rain Light Rain
10:41 AM 69.1 °F 69.1 °F 100% 29.82 in 5.0 mi ENE 5.8 mph - 0.01 in Rain Light Rain
10:53 AM 69.1 °F 69.1 °F 100% 29.78 in 4.0 mi East 6.9 mph - 0.02 in Rain Light Rain
11:16 AM 69.1 °F 69.1 °F 100% 29.82 in 8.0 mi ENE 4.6 mph - 0.02 in Rain Light Rain
11:53 AM 68.0 °F 68.0 °F 100% 29.80 in 2.5 mi East 5.8 mph - 0.11 in Rain Heavy Rain
11:59 AM 69.1 °F 69.1 °F 100% 29.82 in 3.0 mi ENE 8.1 mph - 0.03 in Rain Rain
12:11 PM 68.0 °F 68.0 °F 100% 29.82 in 3.0 mi ENE 4.6 mph - 0.07 in Rain Rain
12:20 PM 69.1 °F 69.1 °F 100% 29.82 in 4.0 mi ENE 4.6 mph - 0.09 in Rain Rain
12:51 PM 69.8 °F 69.8 °F 100% 29.81 in 2.5 mi NE 6.9 mph - 0.13 in Rain Rain
12:53 PM 69.1 °F 69.1 °F 100% 29.78 in 2.5 mi ENE 5.8 mph - 0.14 in Rain Rain
1:05 PM 69.1 °F 69.1 °F 100% 29.81 in 8.0 mi ENE 5.8 mph - 0.00 in Rain Light Rain
1:28 PM 70.0 °F 70.0 °F 100% 29.80 in 6.0 mi ENE 4.6 mph - 0.01 in Rain Light Rain
1:53 PM 71.1 °F 71.1 °F 100% 29.76 in 10.0 mi ENE 5.8 mph - 0.01 in Rain Light Rain
2:13 PM 71.1 °F 71.1 °F 100% 29.78 in 10.0 mi ENE 8.1 mph - 0.00 in   Overcast
2:35 PM 71.1 °F 70.0 °F 96% 29.78 in 10.0 mi East 6.9 mph - 0.00 in   Overcast
2:53 PM 72.0 °F 71.1 °F 97% 29.74 in 10.0 mi NE 8.1 mph - 0.00 in   Overcast
3:04 PM 72.0 °F 70.0 °F 93% 29.77 in 10.0 mi NE 8.1 mph - N/A   Overcast
3:53 PM 73.0 °F 71.1 °F 93% 29.73 in 10.0 mi NE 5.8 mph - 0.00 in   Overcast
4:53 PM 71.1 °F 70.0 °F 96% 29.71 in 1.5 mi ENE 9.2 mph - 0.09 in Rain Heavy Rain
5:00 PM 71.1 °F 70.0 °F 96% 29.75 in 3.0 mi East 9.2 mph - 0.01 in Rain Light Rain
5:07 PM 71.1 °F 70.0 °F 96% 29.75 in 6.0 mi ENE 8.1 mph - 0.01 in Rain , Thunderstorm Light Rain
5:28 PM 72.0 °F 71.1 °F 97% 29.75 in 10.0 mi NE 8.1 mph - 0.01 in   Mostly Cloudy
5:38 PM 72.0 °F 71.1 °F 97% 29.76 in 10.0 mi ENE 5.8 mph - 0.01 in   Scattered Clouds
5:46 PM 72.0 °F 71.1 °F 97% 29.76 in 10.0 mi NE 5.8 mph - 0.01 in   Mostly Cloudy
5:53 PM 72.0 °F 71.1 °F 97% 29.72 in 10.0 mi NE 9.2 mph - 0.01 in   Mostly Cloudy
6:08 PM 72.0 °F 70.0 °F 93% 29.76 in 10.0 mi ENE 6.9 mph - 0.00 in Rain Light Rain
6:18 PM 72.0 °F 71.1 °F 97% 29.76 in 10.0 mi NE 8.1 mph - 0.00 in Rain Light Rain
6:28 PM 72.0 °F 71.1 °F 97% 29.76 in 10.0 mi NE 5.8 mph - 0.00 in Rain Light Rain
6:43 PM 72.0 °F 70.0 °F 93% 29.76 in 10.0 mi NE 9.2 mph - 0.00 in   Overcast
6:51 PM 71.6 °F 69.8 °F 94% 29.76 in 10.0 mi ENE 6.9 mph - 0.00 in   Overcast
6:53 PM 72.0 °F 71.1 °F 97% 29.72 in 10.0 mi ENE 9.2 mph - 0.00 in   Overcast
7:12 PM 72.0 °F 71.1 °F 97% 29.75 in 10.0 mi NE 6.9 mph - N/A   Overcast
7:17 PM 72.0 °F 71.1 °F 97% 29.75 in 10.0 mi NE 8.1 mph - N/A   Overcast
7:53 PM 72.0 °F 71.1 °F 97% 29.73 in 10.0 mi ENE 6.9 mph - N/A   Scattered Clouds
8:53 PM 71.1 °F 70.0 °F 96% 29.74 in 10.0 mi Variable 6.9 mph - N/A   Overcast
9:23 PM 71.1 °F 70.0 °F 96% 29.78 in 10.0 mi ENE 4.6 mph - N/A   Overcast
9:44 PM 71.1 °F 70.0 °F 96% 29.78 in 10.0 mi NE 6.9 mph - N/A   Overcast
9:53 PM 71.1 °F 70.0 °F 96% 29.75 in 10.0 mi NE 6.9 mph - N/A   Overcast
10:20 PM 71.1 °F 70.0 °F 96% 29.79 in 10.0 mi NE 5.8 mph - N/A   Overcast
10:53 PM 71.1 °F 70.0 °F 96% 29.77 in 10.0 mi ENE 5.8 mph - N/A   Overcast
11:53 PM 71.1 °F 70.0 °F 96% 29.77 in 8.0 mi East 4.6 mph - 0.01 in Rain Light Rain